This is the latest recevied weather packets stored in our database for station/object IW1EYZ-3. If no packets are shown the sender has not sent any weather packets the latest 10 day(s).
| Time | Temp. | Humidity | Pressure | Rain* | Wind** | Luminosity | Snow |
|---|---|---|---|---|---|---|---|
| 1777078088 | 14.44° C | 70% | 1018.8 hPa | - | - | - | - |
| 1777076888 | 14.44° C | 70% | 1018.8 hPa | - | - | - | - |
| 1777075688 | 15° C | 69% | 1018.9 hPa | - | - | - | - |
| 1777074487 | 15° C | 68% | 1019.1 hPa | - | - | - | - |
| 1777073287 | 15° C | 65% | 1019.2 hPa | - | - | - | - |
| 1777072088 | 15° C | 60% | 1019.2 hPa | - | - | - | - |
| 1777070886 | 15° C | 55% | 1019.4 hPa | - | - | - | - |
| 1777069686 | 15° C | 48% | 1019.4 hPa | - | - | - | - |
| 1777068486 | 15° C | 47% | 1019.4 hPa | - | - | - | - |
| 1777067285 | 15.56° C | 51% | 1019.4 hPa | - | - | - | - |
| 1777066085 | 15.56° C | 47% | 1019.4 hPa | - | - | - | - |
| 1777064885 | 15.56° C | 47% | 1019.3 hPa | - | - | - | - |
| 1777063684 | 16.11° C | 58% | 1019.2 hPa | - | - | - | - |
| 1777062484 | 16.11° C | 55% | 1019.2 hPa | - | - | - | - |
| 1777061284 | 16.11° C | 61% | 1019.3 hPa | - | - | - | - |
| 1777060084 | 16.67° C | 64% | 1019.2 hPa | - | - | - | - |
| 1777058885 | 16.67° C | 66% | 1019.3 hPa | - | - | - | - |
| 1777057683 | 16.67° C | 67% | 1019.2 hPa | - | - | - | - |
| 1777056484 | 17.22° C | 68% | 1019 hPa | - | - | - | - |
| 1777055282 | 17.22° C | 68% | 1018.9 hPa | - | - | - | - |
| 1777054082 | 17.22° C | 69% | 1018.9 hPa | - | - | - | - |
| 1777052882 | 17.78° C | 66% | 1018.9 hPa | - | - | - | - |
| 1777051681 | 17.78° C | 64% | 1018.9 hPa | - | - | - | - |
| 1777050481 | 18.89° C | 63% | 1018.8 hPa | - | - | - | - |
| 1777049281 | 20.56° C | 56% | 1018.8 hPa | - | - | - | - |
* Rain since midnight (hover to see other rain measurements)
** Current wind speed in m/s (hover to see current wind gust speed)